Location: Tel Aviv-Yafo
(32.0678°N, 34.7647°E)
Time: 03:47:46
(UTC+03:00)

Daily predictions for brighter satellites

Satellite Brightness Start Highest point End
(mag) Time Altitude Azimuth Time Altitude Azimuth Time Altitude Azimuth
ATLAS 3B CENTAUR R/B 4.5 02:59:47 39° ESE 02:59:47 39° ESE 03:08:26 10° E
Meteor 1-27 Rocket 4.5 04:01:28 49° ESE 04:01:59 51° E 04:07:38 10° NNE
ARIANE 5 R/B 3.6 03:58:40 10° NNE 04:03:20 38° E 04:03:30 38° ESE
CENTAUR R/B 2.5 04:11:40 63° ESE 04:11:40 63° ESE 04:17:50 10° NE
Envisat 4.4 04:21:28 10° NNE 04:26:07 36° E 04:30:44 10° SSE
Skynet4D Del rocket 4.3 04:28:05 45° S 04:28:10 45° S 04:33:32 10° E
Cosmos 1447 Rocket 4.3 04:22:03 10° N 04:28:21 81° W 04:34:33 10° S
Atlas Centaur 2 2.9 04:29:29 57° WSW 04:31:20 74° S 04:38:54 10° ESE
ATLAS CENTAUR R/B 3.8 04:36:30 17° NNW 04:36:30 17° NNW 04:38:02 10° N
Cosmos 2360 4.0 04:32:38 22° NNW 04:36:25 84° WSW 04:42:05 10° SSE
NOSS 3-2 (C) 3.9 04:33:53 26° S 04:36:25 47° ESE 04:41:53 10° NE
Cosmos 2082 Rocket 2.3 04:37:41 55° NW 04:37:41 55° NW 04:42:39 10° NNE
NOSS 3-2 (A) 2.9 04:37:23 74° W 04:37:34 75° WNW 04:43:26 10° NNE
Cosmos 1484 Rocket 3.2 04:35:48 10° NNE 04:39:30 63° ENE 04:39:30 63° ENE
METEOR-M 4.0 04:34:46 10° N 04:40:05 69° WNW 04:40:13 68° W
BREEZE-M DEB (TANK) 4.1 04:40:14 41° NW 04:42:33 86° SW 05:03:20 10° SE
IRS-P3 4.0 04:38:41 10° N 04:44:00 75° WNW 04:45:11 54° SW
CZ-2C R/B 3.0 04:39:05 10° SSE 04:44:11 61° ENE 04:49:24 10° N
OceanSat 1 rocket 4.5 04:41:12 10° N 04:45:58 77° WNW 04:46:30 68° SW
Cosmos 1459 Rocket 3.9 04:41:04 10° S 04:47:23 84° W 04:53:47 10° N
Meteor 1-29 4.1 04:45:02 10° NNE 04:48:11 41° E 04:49:02 33° SE
Cosmos 1697 Rocket 2.6 04:45:25 21° NNW 04:49:09 64° WSW 04:54:44 10° S
COSMOS 2406 4.1 04:51:56 30° NW 04:51:56 30° NW 04:56:01 10° N
USA 238 DEB 3.9 04:46:54 15° SSW 04:52:02 62° ESE 04:58:31 10° NE
USA 238 3.9 04:46:56 15° SSW 04:52:09 61° ESE 04:58:38 10° NE
Cosmos 1461 3.1 04:54:07 52° NNW 04:54:07 52° NNW 04:57:30 10° NNE
ATLAS 3B CENTAUR R/B 4.0 04:48:02 34° WSW 04:53:43 70° S 05:06:46 10° E
H-2A R/B 2.3 04:53:29 47° SW 04:54:39 64° S 05:11:23 10° E
Meteor 1-11 Rocket 3.7 04:49:16 10° NNW 04:55:10 65° W 05:00:58 10° S
Tiangong 0.3 04:58:54 15° SSE 04:58:54 15° SSE 04:59:42 10° SSE
Cosmos 2346 Rocket 4.3 04:54:25 10° N 05:00:32 86° W 05:06:40 10° S
CZ-2C R/B 3.9 04:57:20 10° NNW 04:59:29 21° NW 04:59:29 21° NW
DELTA 2 DEB (DPAF) 4.2 04:57:57 10° SSE 05:02:19 77° ENE 05:06:44 10° N
Cosmos 1954 Rocket 3.9 04:57:44 10° NNW 05:02:54 62° WSW 05:08:06 10° S
Cosmos 1802 Rocket 3.9 04:57:13 10° S 05:03:38 80° W 05:09:59 10° N
Cosmos 1725 Rocket 4.0 05:03:31 10° S 05:09:49 87° E 05:16:10 10° N
Meteor 1-19 Rocket 4.0 05:06:45 10° SSW 05:12:11 67° W 05:17:34 10° N
CZ-2C R/B 3.2 05:11:31 10° NNE 05:17:13 88° WNW 05:22:36 10° SSW
TIMED 4.4 05:14:39 19° SSW 05:17:40 67° WNW 05:22:01 10° N
Cosmos 2173 Rocket 4.3 05:15:25 12° SSW 05:20:40 40° W 05:26:23 10° N
FALCON 9 R/B 1.6 05:23:02 25° S 05:23:02 25° S 05:24:39 10° SE
Meteor 2-13 Rocket 4.5 05:17:20 10° NNW 05:23:20 58° W 05:29:20 10° S
YAOGAN 6 3.2 05:21:18 10° N 05:24:34 33° WNW 05:24:57 33° W
Cosmos 1933 Rocket 3.4 05:22:05 10° NNW 05:26:27 68° W 05:30:48 10° S
Cosmos 1741 Rocket 4.4 05:22:32 10° N 05:27:43 66° ENE 05:32:52 10° SSE
H-2A R/B 2.5 05:24:36 10° N 05:28:15 67° WNW 05:31:53 10° SSW
Spot 4 Rocket 4.0 05:24:01 10° N 05:29:04 59° WNW 05:34:04 10° SSW
Lacrosse 4 Rocket 4.1 05:25:41 10° N 05:29:07 22° ENE 05:32:34 10° ESE
USA 234 3.3 05:22:43 10° NE 05:29:11 68° NW 05:35:12 12° SW
CZ-2C R/B 2.7 05:26:02 10° NNE 05:29:51 89° W 05:33:44 10° SSW
IKONOS-2 4.4 05:25:44 10° S 05:29:52 60° WSW 05:34:04 10° NNW
Cosmos 1980 Rocket 2.2 05:24:26 10° NNW 05:29:55 59° WSW 05:35:24 10° S
PSLV R/B 3.4 05:27:30 10° N 05:31:49 81° WNW 05:36:03 10° SSW
GP-B 3.1 05:27:32 10° S 05:31:52 55° W 05:36:13 10° NNW
Delta 2 Rocket 3.5 05:31:14 23° WNW 05:32:56 43° N 05:36:08 10° ENE
Cosmos 1331 Rocket 4.1 05:29:21 10° SW 05:34:18 49° WNW 05:39:18 10° N
Meteor 2-9 Rocket 4.1 05:29:48 10° NNW 05:35:27 68° W 05:40:53 10° S
Cosmos 1302 Rocket 4.3 05:30:42 10° S 05:35:55 74° ESE 05:41:12 10° NNE
SL-24 R/B - RUBIN 2 4.5 05:38:44 19° WSW 05:41:01 29° WNW 05:44:51 10° N
Cosmos 2369 4.0 05:35:47 10° NW 05:41:05 42° WSW 05:46:21 10° S
SL-08 R/B 3.5 05:37:01 10° S 05:41:26 46° W 05:45:57 10° NNW
ARIANE 5 R/B 3.8 05:38:37 10° NNW 05:42:04 19° WNW 05:43:49 16° W
CZ-3 R/B 3.1 05:26:45 16° WSW 05:47:17 72° S 05:54:05 10° E
Cosmos 2278 3.7 05:42:19 10° NNW 05:47:58 82° WSW 05:53:37 10° SSE
SL-16 R/B 3.4 05:44:57 10° N 05:50:23 45° ENE 05:55:47 10° SE
Cosmos 2228 Rocket 3.2 05:48:01 10° SSW 05:52:26 54° W 05:56:48 10° N
H-2A R/B 4.4 05:49:13 10° NE 05:53:59 30° E 05:58:39 10° SSE
NOAA 11 4.3 05:49:37 10° N 05:54:56 54° WNW 06:00:13 10° SSW
MINOTAUR 4 R/B 4.0 05:52:04 10° SSE 05:55:33 86° E 05:59:03 10° N
Cosmos 1862 Rocket 4.5 05:52:55 10° S 05:57:16 55° E 06:01:39 10° NNE
Lacrosse 5 rocket 2.8 05:53:40 10° SSW 05:57:57 43° ESE 06:02:15 10° NE
CZ-4C R/B 3.7 05:57:54 10° S 06:01:48 45° W 06:05:54 10° NNW
CENTAUR R/B 3.9 05:58:53 10° W 06:02:55 19° NW 06:07:32 10° N
ASTRO E2 3.6 06:00:29 11° W 06:03:56 34° SSW 06:07:29 10° SE
Meteor 2-19 Rocket 4.5 05:58:14 10° N 06:04:25 85° W 06:10:32 10° S
Envisat 4.2 06:01:06 10° NNW 06:04:49 21° WNW 06:08:31 10° WSW
USA 276 3.1 06:02:20 10° W 06:04:55 28° NW 06:07:36 10° NNE
Landsat 4 3.7 06:03:30 10° NNE 06:07:10 83° ESE 06:10:50 10° S
Cosmos 1733 4.3 06:06:15 10° N 06:09:52 50° E 06:13:30 10° SSE
Cosmos 968 Rocket 4.2 06:10:55 10° N 06:16:00 60° ENE 06:21:02 10° SSE
BREEZE-M DEB (TANK) 1.6 06:13:28 10° WSW 06:17:29 72° NW 06:19:46 10° NE
Atlas Centaur 2 3.4 06:13:06 10° W 06:20:38 43° SSW 06:27:02 10° SE
